Torna al catalogo

CHINASAT 10

AttivoComunicazioniGEO
NORAD 37677·PAYLOAD·🇨🇳 China

Lanciato Jun 20, 2011 da Xichang Satellite Launch Center

Loading…

TLE

AggiornatoSource: Space-Track

Epoca: Sep 14, 2026, 14:12 UTC

1 37677U 11026A   26257.59208775 -.00000195  00000-0  00000-0 0  9991
2 37677   1.2721  83.0128 0002582  65.8857 143.2624  1.00272126 55893

Traccia CHINASAT 10 in tempo reale con AllMySat

Download on the App Store